Tracking 35280 objects as of 7-Sep-2026
HD Live streaming from Space Station
objects crossing your sky now

COSMOS 1260 DEB


COSMOS 1260 DEB is no longer on orbit


NORAD ID: 18542
Int'l Code: 1981-028BW
Launch date: March 20, 1981
Source: Commonwealth of Independent States (former USSR) (CIS)
Launch site: TYURATAM MISSILE AND SPACE COMPLEX (TTMTR)
Decay date: 1988-12-12

Note: This is SATELLITE DEBRIS
Your satellite tracking list
Your tracking list is empty




NASA's NSSDC Master Catalog

Two Line Element Set (TLE):
1 18542U 81028 BW 88343.08031933  .02003974 +00000-0 +18905-1 0  9991
2 18542 064.0126 230.0366 0034359 028.9882 331.3732 15.65912580146614
Source of the keplerian elements: AFSPC